Wind_Speed
15 14 14 13 12 13 13 13 12 12 12 12 12 12 12 12 12 11 11 12 12 12 12 13 13 13 13 12 12 13 13 13 12 13 13 13 13 14 15 15 15 15 15 16
17 16 15 14 14 13 13 13 13 13 13 13 12 12 12 12 12 12 12 12 12 12 13 13 14 14 14 14 13 13 13 13 13 13 14 14 14 15 16 16 16 15 16 15
18 17 17 16 14 15 14 13 13 13 13 13 13 13 13 12 12 13 13 12 12 13 13 14 14 15 15 15 14 14 14 13 14 14 15 15 15 15 15 16 16 15 15 14
20 19 19 16 15 16 15 14 14 14 14 14 13 13 13 13 13 13 13 12 13 13 14 14 14 14 15 15 15 14 14 14 14 15 15 15 15 15 15 15 15 14 14 14
22 21 20 19 17 16 15 15 15 15 15 15 14 14 14 14 14 14 14 14 14 13 13 14 14 15 15 15 15 15 15 14 15 15 16 16 16 16 16 16 16 15 15 16
23 22 22 20 18 17 18 18 17 16 15 16 16 16 15 15 14 14 14 15 15 14 14 14 15 15 15 15 14 15 15 15 16 16 16 17 17 17 17 16 16 17 17 18
23 23 23 22 18 17 18 18 17 17 16 17 17 17 16 16 15 15 15 15 15 15 15 15 16 16 15 15 15 15 16 16 16 17 17 17 18 18 18 18 18 18 19 19
23 24 24 22 20 19 19 19 18 18 18 18 18 18 17 17 17 17 16 16 16 16 16 16 17 17 17 16 16 16 16 16 17 17 17 17 18 19 19 19 19 19 20 20
26 25 24 23 22 21 21 21 20 20 19 18 18 19 18 17 17 17 17 17 17 17 17 17 17 17 18 18 17 17 17 17 17 17 17 17 18 19 20 20 20 20 21 21
27 26 26 25 23 23 23 22 22 21 20 20 20 20 19 18 18 17 18 17 17 18 17 17 17 17 18 18 17 18 18 18 17 17 17 17 19 19 19 20 20 20 21 21
28 27 26 25 24 24 24 23 22 22 22 21 21 20 20 19 19 18 18 18 18 17 17 17 17 17 17 17 17 18 18 18 18 18 18 18 19 20 20 21 21 21 22 22
28 26 25 25 26 25 24 23 23 23 22 22 22 21 21 20 20 19 18 18 18 18 18 18 18 17 17 18 18 19 19 19 19 19 19 19 20 20 21 22 22 22 24 25
28 27 27 26 25 25 25 25 24 24 23 23 23 23 22 22 21 20 20 20 19 19 19 19 18 18 18 18 19 19 20 20 20 20 21 21 22 22 22 22 23 24 26 27
29 29 28 27 26 26 26 25 24 24 24 24 24 23 23 23 22 22 21 21 21 20 20 20 20 20 20 20 20 20 21 21 21 21 22 23 23 23 23 24 25 26 28 29
30 29 28 27 27 27 26 25 25 25 24 24 24 23 23 23 23 22 22 22 22 21 21 21 21 21 21 21 22 22 22 22 22 23 23 24 24 24 25 25 26 27 29 30
31 30 29 28 28 27 27 26 25 25 25 24 24 23 23 23 22 22 22 22 22 22 22 22 22 22 22 22 22 23 23 24 24 24 24 24 25 26 26 27 28 29 30 32
30 30 30 29 28 28 27 26 26 26 25 25 24 24 24 24 23 23 22 22 22 22 22 22 23 23 23 23 23 24 24 25 25 24 25 26 26 27 28 29 30 31 32 33
29 30 29 30 30 29 28 27 27 26 26 26 25 25 25 24 24 24 23 23 23 22 22 22 23 23 24 24 24 24 25 25 25 26 26 26 27 28 29 31 31 32 33 34
28 28 29 29 30 29 28 28 27 27 27 27 26 26 25 25 25 24 24 24 23 23 23 24 24 24 24 25 25 25 26 26 26 27 28 28 29 30 31 32 32 33 34 35
29 28 28 29 29 29 29 28 28 27 27 27 27 26 26 26 26 25 25 25 24 25 25 25 25 26 26 26 26 26 26 27 27 28 29 29 30 31 32 33 34 35 36 37
30 30 29 29 29 30 30 29 29 28 28 28 28 27 27 27 27 26 26 26 26 26 26 27 27 27 28 28 28 28 28 28 29 29 30 30 32 33 33 34 35 36 37 38
29 29 29 29 29 29 30 30 29 29 29 29 28 28 28 28 28 28 28 28 28 28 28 28 29 29 29 30 30 30 30 30 30 31 31 32 33 34 35 36 36 37 38 39
28 29 29 29 29 29 29 30 30 30 29 29 29 29 29 30 30 30 30 30 30 30 30 30 30 30 31 31 31 31 31 31 32 32 33 33 34 35 35 36 37 38 39 40
29 30 30 29 29 29 29 29 30 30 30 30 31 31 31 31 30 31 31 30 31 31 32 32 32 32 31 31 31 32 32 32 33 33 34 35 35 36 37 38 38 39 40 41
29 29 29 29 30 29 30 30 30 30 30 31 31 31 31 31 31 30 31 31 31 31 32 32 32 32 32 31 32 32 33 33 34 34 35 36 36 37 38 39 39 40 40 41
29 30 30 29 30 30 30 30 30 31 31 31 31 31 31 31 31 31 31 31 31 31 31 31 32 32 32 32 33 34 34 35 35 35 36 37 37 38 38 38 39 40 41 41
29 30 30 29 29 30 30 30 30 30 31 31 31 31 31 31 32 32 32 32 32 32 32 32 33 33 33 33 34 35 36 36 36 37 37 38 38 38 38 39 40 41 41 41
Wind_Direction
239 244 252 255 250 245 246 247 248 252 255 257 257 258 255 251 251 250 246 245 244 240 239 240 240 242 247 251 253 252 253 255 256 256 258 261 265 268 270 274 276 277 277 278
237 242 247 251 254 251 250 248 249 251 254 256 255 254 254 249 248 250 251 250 248 245 244 242 242 244 248 251 252 254 255 257 256 258 260 263 267 271 272 274 276 277 279 279
236 239 246 248 253 256 255 251 251 252 254 255 257 258 258 253 248 248 250 255 254 251 250 248 247 246 249 251 254 255 256 258 258 260 264 265 270 273 275 276 280 282 280 277
239 239 244 248 253 255 254 253 252 252 254 255 256 259 260 257 254 252 252 253 254 253 253 253 251 251 252 255 256 256 258 258 260 263 265 268 270 273 277 281 283 284 282 279
241 241 244 248 249 251 255 254 255 255 255 256 256 258 259 259 258 258 257 252 252 254 257 256 254 254 257 258 257 258 259 259 262 264 266 269 272 273 277 281 283 282 281 280
243 245 246 247 249 250 254 254 254 255 255 256 255 256 257 258 258 257 258 257 256 257 258 257 256 256 258 259 260 259 260 261 264 266 267 271 271 272 275 279 282 284 283 282
243 246 248 247 247 250 252 255 254 255 255 253 253 255 257 256 256 257 258 259 260 260 261 258 256 257 259 258 258 259 261 265 268 270 271 270 271 271 273 277 281 283 284 285
243 246 246 248 250 251 253 254 253 255 256 253 253 254 256 257 257 257 258 259 259 260 260 258 256 256 258 258 259 261 264 267 269 269 270 271 272 273 275 278 281 284 286 287
242 245 248 248 250 249 250 250 251 253 255 253 253 254 255 256 257 257 259 259 259 259 260 258 256 256 257 258 259 261 265 268 268 268 269 271 273 277 279 280 282 284 285 287
243 243 245 247 248 249 250 252 252 253 254 254 255 255 256 255 256 257 258 260 259 258 259 258 256 256 258 261 262 262 264 265 269 273 270 270 274 277 279 281 283 285 287 288
244 245 246 246 246 247 248 250 251 252 253 253 254 254 255 256 256 256 257 258 258 258 257 257 258 258 259 261 262 263 265 266 268 271 270 271 273 276 279 282 284 286 287 289
244 245 245 246 247 248 248 249 250 251 253 253 253 253 254 256 257 256 256 256 257 257 257 257 258 259 260 262 263 263 265 267 270 272 271 272 274 278 282 283 285 287 289 290
244 244 246 247 248 249 250 250 251 250 251 253 253 253 253 254 256 256 256 256 256 257 258 257 258 259 262 263 265 267 267 267 269 271 272 273 275 278 280 281 285 288 289 291
242 243 245 246 246 248 250 251 251 251 251 252 252 253 252 254 255 255 255 256 256 257 258 258 259 261 262 264 266 267 268 268 268 270 273 275 277 278 279 282 285 288 290 292
240 242 244 245 246 247 249 251 251 250 250 251 252 252 252 252 254 255 255 256 256 256 258 259 261 262 263 264 266 267 268 271 271 272 274 276 277 278 280 282 285 288 290 292
241 241 243 245 246 248 248 249 250 250 249 250 251 253 252 253 254 255 255 256 256 256 258 260 263 265 265 266 267 268 270 272 274 275 275 276 278 279 281 283 285 289 291 292
241 242 243 244 246 247 247 248 249 249 250 251 251 252 253 254 254 254 254 255 256 257 260 262 264 265 266 267 268 269 272 273 275 276 278 278 279 281 283 285 287 290 292 294
241 241 243 245 245 246 247 247 248 248 249 250 250 251 253 253 253 253 254 256 258 260 262 263 265 266 267 267 269 270 271 273 276 277 279 280 281 282 285 286 288 290 293 295
242 243 243 245 246 246 247 247 248 249 249 249 250 250 251 252 253 254 255 257 259 260 262 264 266 268 268 269 271 273 274 275 276 278 279 280 282 284 285 287 290 292 294 294
242 244 245 246 247 246 246 247 247 248 249 249 250 251 251 252 253 255 257 257 258 260 262 264 266 268 270 271 273 275 275 276 277 279 280 281 283 285 286 288 290 292 294 295
244 245 246 247 246 246 246 246 247 248 249 249 250 251 252 253 255 256 256 256 259 261 263 265 268 270 272 273 274 275 277 278 279 280 281 283 285 286 288 290 291 293 294 295
244 245 246 246 246 246 245 245 246 248 248 249 250 251 252 254 256 257 257 258 259 262 264 266 269 270 272 273 274 275 277 278 279 281 282 284 286 288 289 290 292 293 295 296
245 246 247 246 245 245 245 245 246 247 248 249 250 252 253 255 256 257 258 260 262 263 264 266 269 271 272 273 273 275 276 278 279 281 283 285 287 289 290 291 293 295 296 297
247 248 249 248 245 245 246 247 246 247 248 249 250 252 254 256 257 258 259 260 261 263 264 266 268 270 272 273 274 275 277 278 280 282 284 285 287 288 290 292 293 296 297 298
247 247 248 246 245 245 246 247 247 248 249 250 251 253 254 256 258 259 261 262 263 263 265 266 267 269 270 272 274 276 277 279 281 283 285 286 287 289 291 293 295 296 298 298
246 246 247 247 246 246 247 248 248 248 249 251 252 253 254 256 258 260 261 262 263 265 266 267 268 269 270 272 274 276 278 279 282 284 286 287 288 289 290 292 295 297 298 298
246 247 249 249 248 248 249 249 249 250 251 251 252 253 256 258 259 260 261 262 264 265 266 268 269 271 273 275 276 277 278 280 282 284 285 287 288 289 290 293 295 296 297 298
Height
5820 5822 5823 5824 5825 5826 5827 5828 5829 5830 5829 5830 5830 5831 5831 5832 5833 5834 5835 5836 5837 5839 5840 5841 5843 5844 5846 5847 5848 5849 5850 5851 5852 5853 5854 5855 5855 5856 5856 5856 5856 5856 5855 5855
5817 5818 5819 5821 5822 5823 5824 5825 5826 5827 5827 5827 5827 5828 5829 5830 5831 5832 5832 5833 5834 5836 5837 5838 5840 5841 5843 5844 5845 5846 5847 5848 5849 5850 5850 5851 5852 5852 5852 5852 5851 5851 5851 5850
5813 5815 5815 5817 5819 5820 5821 5822 5823 5824 5825 5825 5825 5826 5826 5827 5828 5829 5830 5831 5832 5833 5834 5835 5837 5838 5839 5841 5842 5843 5843 5844 5845 5846 5847 5847 5848 5848 5848 5848 5847 5846 5846 5846
5808 5811 5812 5816 5816 5816 5817 5818 5819 5820 5821 5822 5822 5823 5824 5825 5826 5826 5827 5828 5829 5830 5831 5832 5833 5834 5836 5837 5838 5839 5840 5841 5842 5842 5843 5843 5844 5844 5844 5844 5843 5842 5842 5842
5803 5805 5807 5810 5811 5812 5813 5815 5816 5817 5818 5818 5819 5820 5821 5822 5822 5823 5824 5825 5826 5827 5828 5828 5830 5831 5832 5833 5834 5835 5836 5837 5838 5838 5839 5839 5840 5840 5840 5840 5839 5839 5838 5838
5798 5800 5802 5806 5807 5808 5810 5811 5812 5813 5814 5814 5815 5817 5818 5818 5819 5820 5820 5821 5822 5823 5824 5825 5826 5827 5828 5829 5830 5831 5832 5833 5834 5834 5835 5835 5835 5835 5835 5835 5835 5835 5834 5834
5793 5795 5797 5800 5801 5804 5806 5807 5807 5808 5809 5810 5811 5813 5814 5814 5815 5816 5817 5818 5819 5820 5820 5821 5822 5823 5824 5825 5826 5827 5828 5828 5829 5830 5830 5830 5830 5831 5831 5830 5830 5830 5830 5829
5787 5789 5793 5794 5797 5799 5800 5801 5802 5803 5804 5806 5807 5808 5809 5810 5811 5812 5813 5814 5815 5815 5816 5817 5818 5819 5820 5821 5822 5823 5824 5824 5824 5825 5825 5825 5826 5826 5826 5826 5825 5825 5824 5824
5783 5786 5787 5789 5791 5792 5794 5795 5797 5798 5799 5801 5802 5803 5804 5805 5806 5807 5808 5809 5810 5811 5812 5813 5813 5814 5816 5817 5817 5818 5819 5819 5820 5820 5820 5821 5821 5821 5821 5821 5820 5820 5819 5819
5775 5778 5780 5782 5785 5786 5788 5790 5792 5793 5794 5796 5797 5798 5799 5800 5801 5802 5804 5805 5805 5806 5807 5808 5809 5810 5811 5812 5813 5813 5814 5814 5815 5815 5815 5816 5816 5816 5816 5816 5815 5814 5814 5813
5768 5771 5774 5776 5778 5780 5782 5784 5786 5787 5789 5790 5791 5793 5794 5795 5796 5797 5798 5799 5800 5801 5802 5803 5804 5805 5806 5807 5807 5808 5809 5809 5810 5810 5810 5811 5811 5811 5810 5810 5809 5809 5808 5807
5762 5765 5767 5769 5771 5773 5776 5777 5779 5781 5783 5784 5785 5787 5788 5789 5791 5792 5793 5794 5795 5796 5797 5798 5799 5800 5801 5802 5802 5803 5803 5804 5804 5805 5805 5805 5805 5805 5804 5804 5803 5802 5801 5800
5755 5757 5759 5762 5764 5767 5769 5771 5773 5775 5776 5778 5779 5781 5782 5784 5785 5786 5788 5789 5790 5791 5792 5793 5794 5794 5795 5796 5797 5797 5798 5798 5798 5799 5799 5799 5799 5799 5798 5798 5797 5796 5794 5793
5746 5749 5752 5755 5757 5760 5762 5764 5766 5768 5769 5771 5772 5774 5776 5777 5779 5780 5782 5783 5784 5785 5786 5787 5788 5789 5789 5790 5791 5791 5792 5792 5792 5792 5792 5792 5792 5792 5791 5791 5790 5789 5787 5785
5738 5741 5745 5747 5750 5752 5755 5757 5759 5761 5762 5764 5766 5767 5769 5771 5772 5774 5775 5777 5778 5779 5780 5781 5782 5783 5783 5784 5784 5785 5785 5785 5786 5786 5785 5785 5785 5784 5784 5783 5782 5781 5779 5777
5730 5733 5736 5739 5742 5745 5747 5749 5751 5753 5755 5757 5759 5761 5762 5764 5766 5767 5769 5770 5772 5773 5774 5775 5776 5776 5777 5777 5778 5778 5778 5778 5778 5778 5778 5778 5777 5777 5776 5775 5774 5773 5771 5768
5721 5725 5728 5732 5735 5737 5740 5742 5744 5746 5748 5750 5752 5754 5756 5757 5759 5761 5762 5764 5765 5766 5767 5768 5769 5769 5770 5771 5771 5771 5771 5771 5771 5771 5771 5770 5769 5769 5768 5767 5765 5763 5761 5759
5713 5716 5720 5723 5727 5729 5732 5734 5737 5739 5741 5743 5745 5747 5749 5750 5752 5754 5755 5757 5758 5759 5760 5761 5762 5762 5763 5763 5764 5764 5764 5764 5764 5763 5763 5762 5761 5760 5759 5758 5756 5754 5752 5749
5706 5709 5712 5715 5718 5721 5724 5727 5729 5731 5734 5735 5737 5739 5741 5743 5745 5747 5748 5750 5751 5753 5754 5754 5755 5755 5756 5756 5756 5756 5756 5756 5756 5755 5755 5754 5753 5751 5750 5748 5746 5744 5742 5739
5698 5701 5704 5707 5710 5713 5716 5719 5721 5724 5726 5728 5730 5732 5734 5736 5738 5740 5741 5743 5744 5745 5746 5747 5747 5748 5748 5748 5748 5748 5748 5748 5747 5747 5746 5745 5744 5742 5741 5739 5737 5734 5732 5729
5690 5693 5696 5699 5702 5705 5708 5711 5713 5716 5718 5720 5722 5724 5727 5729 5730 5732 5733 5735 5736 5737 5738 5739 5739 5740 5740 5740 5740 5740 5740 5739 5739 5738 5737 5736 5735 5733 5731 5729 5727 5724 5721 5718
5682 5685 5688 5690 5693 5696 5699 5702 5705 5708 5710 5712 5714 5716 5718 5720 5722 5724 5725 5726 5728 5729 5729 5730 5731 5731 5731 5731 5731 5731 5731 5730 5729 5728 5728 5726 5725 5723 5721 5719 5716 5714 5711 5707
5675 5677 5680 5682 5685 5688 5691 5694 5696 5699 5702 5704 5706 5708 5710 5712 5714 5715 5717 5718 5718 5719 5720 5721 5721 5722 5722 5722 5722 5722 5721 5721 5720 5719 5718 5716 5715 5713 5711 5708 5706 5703 5700 5696
5667 5669 5672 5674 5677 5679 5682 5685 5688 5691 5693 5695 5697 5699 5701 5703 5705 5706 5707 5708 5709 5710 5711 5711 5712 5712 5712 5712 5712 5712 5711 5710 5710 5709 5707 5706 5704 5702 5700 5697 5695 5691 5688 5684
5659 5661 5663 5666 5669 5671 5674 5676 5679 5681 5684 5686 5688 5690 5692 5694 5696 5697 5698 5699 5700 5700 5701 5701 5701 5702 5702 5702 5702 5702 5701 5700 5699 5698 5697 5695 5693 5691 5689 5686 5683 5680 5676 5673
5651 5653 5656 5658 5660 5663 5665 5668 5670 5673 5675 5677 5679 5681 5683 5684 5686 5687 5688 5689 5690 5690 5691 5692 5692 5692 5692 5692 5692 5691 5690 5689 5688 5687 5685 5684 5682 5680 5677 5674 5671 5668 5665 5661
5643 5645 5648 5650 5652 5654 5656 5659 5661 5663 5666 5668 5670 5672 5674 5675 5676 5677 5679 5679 5680 5681 5681 5682 5682 5682 5681 5681 5681 5680 5679 5678 5677 5676 5674 5672 5670 5668 5665 5663 5660 5656 5653 5649